Regional Weather Roundup
Issued by NWS Jackson, KY

Home | Current Version | Previous Version | Graphics & Text | Print | Product List | Glossary On
Versions: 1 2 3 4 5 6 7 8 9 10 11 12 13 14 15 16 17 18 19 20 21 22 23 24 25 26 27 28 29 30 31 32 33 34 35 36 37 38 39 40 41 42 43 44 45 46 47 48 49 50
000
ASUS43 KJKL 240710
RWRJKL

EAST KENTUCKY HOURLY WEATHER ROUNDUP
NATIONAL WEATHER SERVICE JACKSON KY
300 AM EDT FRI MAR 24 2017

NOTE: "FAIR" INDICATES FEW OR NO CLOUDS BELOW 12,000 FEET WITH
NO SIGNIFICANT WEATHER AND/OR OBSTRUCTIONS TO VISIBILITY.

* THESE REPORTS ARE NOT UNDER NWS QUALITY CONTROL AND MAY NOT
  REPORT WEATHER SUCH AS PRECIPITATION AND FOG.

KYZ079-080-083-085-087-088-110-112-115-119-120-240800
...EASTERN KENTUCKY...

CITY           SKY/WX    TMP DP  RH WIND       PRES   REMARKS
JACKSON        CLEAR     55  35  47 S6        30.26F
LONDON         CLEAR     55  37  50 S8        30.27F
SOMERSET*      PTCLDY    54  36  50 S14       30.27F
MONTICELLO*    CLEAR     57  39  51 S13       30.27F
WILLIAMSBURG*  SUNNY     55  41  58 S8        30.28F
MIDDLESBORO*   CLEAR     55  37  50 S9G21     30.33F
HARLAN APT*    SUNNY     52  30  43 SE3       30.32F
PIKE CO APT*   CLOUDY    55  29  38 S8        30.30R
BIG SANDY APT* CLOUDY    57  31  36 S9        30.29R
MOREHEAD APT*  SUNNY     57  34  41 S9        30.25R
ASHLAND*       CLOUDY    50  36  57 E3        30.23S
$$

KYZ035-036-041-042-044-050-067-078-099-240800
...CENTRAL KENTUCKY...

CITY           SKY/WX    TMP DP  RH WIND       PRES   REMARKS
MT STERLING*   CLEAR     54  37  54 SW13      30.23F
FLEMING/MASON* CLEAR     52  35  51 S9        30.21F
DANVILLE*      CLEAR     54  37  54 SW13      30.22F
LEXINGTON      PTCLDY    56  38  50 S17G23    30.18F
FRANKFORT      PTCLDY    56  38  50 S8        30.17F
LOUISVILLE     PTCLDY    60  38  43 S14G23    30.16F
LEBANON*         N/A     57  39  51 S16G24    30.20F
GLASGOW*       CLEAR     56  39  52 S9G16     30.22R
BOWLING GREEN  CLEAR     59  42  53 S13G24    30.20S
$$

KYZ091>093-OHZ055-061-077-WVZ005-015-034-035-042-240800
...SOUTHERN OHIO/WEST VIRGINIA...

CITY           SKY/WX    TMP DP  RH WIND       PRES   REMARKS
COVINGTON      CLOUDY    53  37  54 S12       30.15F
COLUMBUS       LGT RAIN  50  29  44 SE9       30.17F
DAYTON         CLOUDY    50  32  50 S10       30.13F
WILMINGTON     MOCLDY    50  35  56 S9        30.17F
HUNTINGTON     CLOUDY    57  30  35 S7        30.24S
CHARLESTON     CLOUDY    53  25  33 S5        30.28S
PINEVILLE*     CLOUDY    39  30  69 MISG      30.39S
BECKLEY        CLOUDY    43  22  43 SE9       30.34S
BLUEFIELD      CLOUDY    43  20  39 S8G16     30.36S
LOGAN CO APT*  CLOUDY    52  25  35 S9        30.30S
$$

VAZ002-007-008-TNZ017-027-036-066-071-240800
...SOUTHWEST VIRGINIA/EAST TENNESSEE...

CITY           SKY/WX    TMP DP  RH WIND       PRES   REMARKS
WISE*          CLOUDY    50  27  40 S7        30.34S
JONESVILLE*      N/A     54  30  40 CALM      30.37F
ABINGDON*      CLOUDY    46  31  54 CALM      30.37S
BRISTOL        PTCLDY    50  28  42 SE5       30.38S
MORRISTOWN*    CLOUDY    48  32  53 SE5       30.34F
SEVIERVILLE*   SUNNY     43  37  81 CALM      30.35S
KNOXVILLE      MOCLDY    53  37  54 SW7       30.34S
LAFOLLETTE*    CLOUDY    57  36  44 S10G18    30.35F
OAK RIDGE      CLOUDY    57  34  41 CALM      30.36F
CROSSVILLE     CLEAR     53  36  52 S10G21    30.32S
NASHVILLE      CLEAR     60  44  55 S14       30.24R
$$

...KEY TO REMARKS...
VSB - VISIBILITY IN MILES
WCI - WIND CHILL INDEX
HX  - HEAT INDEX

$$



USA.gov is the U.S. government's official web portal to all federal, state and local government web resources and services.